QPF
0.00 0.00 0.00 0.00 0.00 0.00 0.00 0.00 0.00 0.00 0.00 0.00 0.00 0.00 0.00 0.00 0.00 0.00 0.00 0.00 0.00 0.00 0.00 0.00 0.02 0.00 0.00 0.00 0.00 0.00 0.00 0.00 0.00 0.00 0.00 0.04 0.00 0.00 0.00 0.00 0.00 0.00 0.00 0.00 0.00 0.00 0.00 0.00 0.00
0.00 0.00 0.00 0.00 0.00 0.00 0.00 0.00 0.00 0.00 0.00 0.00 0.00 0.00 0.00 0.00 0.00 0.00 0.00 0.00 0.00 0.00 0.00 0.00 0.01 0.00 0.00 0.00 0.00 0.00 0.00 0.00 0.00 0.00 0.00 0.00 0.01 0.02 0.00 0.00 0.00 0.00 0.00 0.00 0.00 0.00 0.00 0.00 0.00
0.00 0.00 0.00 0.00 0.00 0.00 0.00 0.00 0.00 0.00 0.00 0.00 0.00 0.00 0.00 0.00 0.00 0.00 0.00 0.00 0.00 0.00 0.00 0.00 0.01 0.02 0.00 0.00 0.01 0.00 0.00 0.00 0.00 0.00 0.00 0.00 0.00 0.00 0.01 0.02 0.02 0.00 0.00 0.00 0.00 0.00 0.00 0.00 0.00
0.00 0.00 0.00 0.00 0.00 0.00 0.00 0.00 0.00 0.00 0.00 0.00 0.00 0.00 0.00 0.00 0.00 0.00 0.00 0.00 0.00 0.00 0.00 0.00 0.01 0.02 0.01 0.00 0.00 0.01 0.02 0.01 0.00 0.00 0.00 0.00 0.00 0.00 0.00 0.00 0.02 0.00 0.00 0.00 0.00 0.00 0.00 0.00 0.00
0.00 0.00 0.00 0.00 0.00 0.00 0.00 0.00 0.00 0.00 0.00 0.00 0.00 0.00 0.00 0.00 0.00 0.00 0.00 0.00 0.00 0.00 0.00 0.00 0.01 0.01 0.01 0.01 0.01 0.01 0.01 0.02 0.03 0.02 0.03 0.02 0.01 0.00 0.00 0.00 0.01 0.01 0.00 0.00 0.00 0.00 0.00 0.00 0.00
0.00 0.00 0.00 0.00 0.00 0.00 0.00 0.00 0.00 0.00 0.00 0.00 0.00 0.00 0.00 0.00 0.00 0.00 0.00 0.00 0.00 0.00 0.00 0.00 0.00 0.00 0.00 0.00 0.00 0.00 0.00 0.00 0.00 0.00 0.00 0.00 0.00 0.00 0.00 0.00 0.00 0.01 0.02 0.02 0.01 0.00 0.00 0.00 0.00
0.00 0.00 0.00 0.00 0.00 0.00 0.00 0.00 0.00 0.00 0.00 0.00 0.00 0.00 0.00 0.00 0.00 0.00 0.00 0.00 0.00 0.00 0.00 0.00 0.00 0.00 0.00 0.00 0.00 0.00 0.00 0.00 0.00 0.00 0.00 0.00 0.00 0.00 0.00 0.00 0.00 0.00 0.01 0.02 0.02 0.01 0.00 0.00 0.01
0.00 0.00 0.00 0.00 0.00 0.00 0.00 0.00 0.00 0.00 0.00 0.00 0.00 0.00 0.00 0.00 0.00 0.00 0.00 0.00 0.00 0.00 0.00 0.00 0.00 0.00 0.00 0.00 0.00 0.00 0.00 0.00 0.00 0.00 0.00 0.00 0.00 0.00 0.00 0.00 0.00 0.00 0.00 0.01 0.01 0.02 0.02 0.03 0.03
0.00 0.00 0.00 0.00 0.00 0.00 0.00 0.00 0.00 0.00 0.00 0.00 0.00 0.00 0.00 0.00 0.00 0.00 0.00 0.00 0.00 0.00 0.00 0.00 0.00 0.00 0.00 0.00 0.00 0.00 0.00 0.00 0.00 0.00 0.00 0.00 0.00 0.00 0.00 0.00 0.00 0.00 0.00 0.00 0.00 0.00 0.00 0.01 0.01
0.00 0.00 0.00 0.00 0.00 0.00 0.00 0.00 0.00 0.00 0.00 0.00 0.00 0.00 0.00 0.00 0.00 0.00 0.00 0.00 0.00 0.00 0.00 0.00 0.00 0.00 0.00 0.00 0.00 0.00 0.00 0.00 0.00 0.00 0.00 0.00 0.00 0.00 0.00 0.00 0.00 0.00 0.00 0.00 0.00 0.00 0.00 0.00 0.00
0.00 0.00 0.00 0.00 0.00 0.00 0.00 0.00 0.00 0.00 0.00 0.00 0.00 0.00 0.00 0.00 0.00 0.00 0.00 0.00 0.00 0.00 0.00 0.00 0.00 0.00 0.00 0.00 0.00 0.00 0.00 0.00 0.00 0.00 0.00 0.00 0.00 0.00 0.00 0.00 0.00 0.00 0.00 0.00 0.00 0.00 0.00 0.00 0.00
0.00 0.00 0.00 0.00 0.00 0.00 0.00 0.00 0.00 0.00 0.00 0.00 0.00 0.00 0.00 0.00 0.00 0.00 0.00 0.00 0.00 0.00 0.00 0.00 0.00 0.00 0.00 0.00 0.00 0.00 0.00 0.00 0.00 0.00 0.00 0.00 0.00 0.00 0.00 0.00 0.00 0.00 0.00 0.00 0.00 0.00 0.00 0.00 0.00
0.00 0.00 0.00 0.00 0.00 0.00 0.00 0.00 0.00 0.00 0.00 0.00 0.00 0.00 0.00 0.00 0.00 0.00 0.00 0.00 0.00 0.00 0.00 0.00 0.00 0.00 0.00 0.00 0.00 0.00 0.00 0.00 0.00 0.00 0.00 0.00 0.00 0.00 0.00 0.00 0.00 0.00 0.00 0.00 0.00 0.00 0.00 0.00 0.00
0.00 0.00 0.00 0.00 0.00 0.00 0.00 0.00 0.00 0.00 0.00 0.00 0.00 0.00 0.00 0.00 0.00 0.00 0.00 0.00 0.00 0.00 0.00 0.00 0.00 0.00 0.00 0.00 0.00 0.00 0.00 0.00 0.00 0.00 0.00 0.00 0.00 0.00 0.00 0.00 0.00 0.00 0.00 0.00 0.00 0.00 0.00 0.00 0.00
0.00 0.00 0.00 0.00 0.00 0.00 0.00 0.00 0.00 0.00 0.00 0.00 0.00 0.00 0.00 0.00 0.00 0.00 0.00 0.00 0.00 0.00 0.00 0.00 0.00 0.00 0.00 0.00 0.00 0.00 0.00 0.00 0.00 0.00 0.00 0.00 0.00 0.00 0.00 0.00 0.00 0.00 0.00 0.00 0.00 0.00 0.00 0.00 0.00
0.00 0.00 0.00 0.00 0.00 0.00 0.00 0.00 0.00 0.00 0.00 0.00 0.00 0.00 0.00 0.00 0.00 0.00 0.00 0.00 0.00 0.00 0.00 0.00 0.00 0.00 0.00 0.00 0.00 0.00 0.00 0.00 0.00 0.00 0.00 0.00 0.00 0.00 0.00 0.00 0.00 0.00 0.00 0.00 0.00 0.00 0.00 0.00 0.00
0.00 0.00 0.00 0.00 0.00 0.00 0.00 0.00 0.00 0.00 0.00 0.00 0.00 0.00 0.00 0.00 0.00 0.00 0.00 0.00 0.00 0.00 0.00 0.00 0.00 0.00 0.00 0.00 0.00 0.00 0.00 0.00 0.00 0.00 0.00 0.00 0.00 0.00 0.00 0.00 0.00 0.00 0.00 0.00 0.00 0.00 0.00 0.00 0.00
0.00 0.00 0.00 0.00 0.00 0.00 0.00 0.00 0.00 0.00 0.00 0.00 0.00 0.00 0.00 0.00 0.00 0.00 0.00 0.00 0.00 0.00 0.00 0.00 0.00 0.00 0.00 0.00 0.00 0.00 0.00 0.00 0.00 0.00 0.00 0.00 0.00 0.00 0.00 0.00 0.00 0.00 0.00 0.00 0.00 0.00 0.00 0.00 0.00
0.00 0.00 0.00 0.00 0.00 0.00 0.00 0.00 0.00 0.00 0.00 0.00 0.00 0.00 0.00 0.00 0.00 0.00 0.00 0.00 0.00 0.00 0.00 0.00 0.00 0.00 0.00 0.00 0.00 0.00 0.00 0.00 0.00 0.00 0.00 0.00 0.00 0.00 0.00 0.00 0.00 0.00 0.00 0.00 0.00 0.00 0.00 0.00 0.00
0.00 0.00 0.00 0.00 0.00 0.00 0.00 0.00 0.00 0.00 0.00 0.00 0.00 0.00 0.00 0.00 0.00 0.00 0.00 0.00 0.00 0.00 0.00 0.00 0.00 0.00 0.00 0.00 0.00 0.00 0.00 0.00 0.00 0.00 0.00 0.00 0.00 0.00 0.00 0.00 0.00 0.00 0.00 0.00 0.00 0.00 0.00 0.00 0.00
0.00 0.00 0.00 0.00 0.00 0.00 0.00 0.00 0.00 0.00 0.00 0.00 0.00 0.00 0.00 0.00 0.00 0.00 0.00 0.00 0.00 0.00 0.00 0.00 0.00 0.00 0.00 0.00 0.00 0.00 0.00 0.00 0.00 0.00 0.00 0.00 0.00 0.00 0.00 0.00 0.00 0.00 0.00 0.00 0.00 0.00 0.00 0.00 0.00
0.00 0.00 0.00 0.00 0.00 0.00 0.00 0.00 0.00 0.00 0.00 0.00 0.00 0.00 0.00 0.00 0.00 0.00 0.00 0.00 0.00 0.00 0.00 0.00 0.00 0.00 0.00 0.00 0.00 0.00 0.00 0.00 0.00 0.00 0.00 0.00 0.00 0.00 0.00 0.00 0.00 0.00 0.00 0.00 0.00 0.00 0.00 0.00 0.00
0.00 0.00 0.00 0.00 0.00 0.00 0.00 0.00 0.00 0.00 0.00 0.00 0.00 0.00 0.00 0.00 0.00 0.00 0.00 0.00 0.00 0.00 0.00 0.00 0.00 0.00 0.00 0.00 0.00 0.00 0.00 0.00 0.00 0.00 0.00 0.00 0.00 0.00 0.00 0.00 0.00 0.00 0.00 0.00 0.00 0.00 0.00 0.00 0.00
0.00 0.00 0.00 0.00 0.00 0.00 0.00 0.00 0.00 0.00 0.00 0.00 0.00 0.00 0.00 0.00 0.00 0.00 0.00 0.00 0.00 0.00 0.00 0.00 0.00 0.00 0.00 0.00 0.00 0.00 0.00 0.00 0.00 0.00 0.00 0.00 0.00 0.00 0.00 0.00 0.00 0.00 0.00 0.00 0.00 0.00 0.00 0.00 0.00
0.00 0.00 0.00 0.00 0.00 0.00 0.00 0.00 0.00 0.00 0.00 0.00 0.00 0.00 0.00 0.00 0.00 0.00 0.00 0.00 0.00 0.00 0.00 0.00 0.00 0.00 0.00 0.00 0.00 0.00 0.00 0.00 0.00 0.00 0.00 0.00 0.00 0.00 0.00 0.00 0.00 0.00 0.00 0.00 0.00 0.00 0.00 0.00 0.00
0.00 0.00 0.00 0.00 0.00 0.00 0.00 0.00 0.00 0.00 0.00 0.00 0.00 0.00 0.00 0.00 0.00 0.00 0.00 0.00 0.00 0.00 0.00 0.00 0.00 0.00 0.00 0.00 0.00 0.00 0.00 0.00 0.00 0.00 0.00 0.00 0.00 0.00 0.00 0.00 0.00 0.00 0.00 0.00 0.00 0.00 0.00 0.00 0.00
0.00 0.00 0.00 0.00 0.00 0.00 0.00 0.00 0.00 0.00 0.00 0.00 0.00 0.00 0.00 0.00 0.00 0.00 0.00 0.00 0.00 0.00 0.00 0.00 0.00 0.00 0.00 0.00 0.00 0.00 0.00 0.00 0.00 0.00 0.00 0.00 0.00 0.00 0.00 0.00 0.00 0.00 0.00 0.00 0.00 0.00 0.00 0.00 0.00
0.00 0.00 0.00 0.00 0.00 0.00 0.00 0.00 0.00 0.00 0.00 0.00 0.00 0.00 0.00 0.00 0.00 0.00 0.00 0.00 0.00 0.00 0.00 0.00 0.00 0.00 0.00 0.00 0.00 0.00 0.00 0.00 0.00 0.00 0.00 0.00 0.00 0.00 0.00 0.00 0.00 0.00 0.00 0.00 0.00 0.00 0.00 0.00 0.00
0.00 0.00 0.00 0.00 0.00 0.00 0.00 0.00 0.00 0.00 0.00 0.00 0.00 0.00 0.00 0.00 0.00 0.00 0.00 0.00 0.00 0.00 0.00 0.00 0.00 0.00 0.00 0.00 0.00 0.00 0.00 0.00 0.00 0.00 0.00 0.00 0.00 0.00 0.00 0.00 0.00 0.00 0.00 0.00 0.00 0.00 0.00 0.00 0.00
0.00 0.00 0.00 0.00 0.00 0.00 0.00 0.00 0.00 0.00 0.00 0.00 0.00 0.00 0.00 0.00 0.00 0.00 0.00 0.00 0.00 0.00 0.00 0.00 0.00 0.00 0.00 0.00 0.00 0.00 0.00 0.00 0.00 0.00 0.00 0.00 0.00 0.00 0.00 0.00 0.00 0.00 0.00 0.00 0.00 0.00 0.00 0.00 0.00
MSLP
1015.50 1015.46 1015.53 1015.40 1016.28 1016.49 1016.42 1016.30 1016.23 1016.40 1016.66 1016.91 1017.04 1017.12 1017.30 1017.97 1018.16 1018.69 1018.62 1018.58 1018.62 1018.79 1019.09 1019.19 1019.38 1019.49 1019.64 1019.72 1019.80 1019.83 1019.91 1019.92 1019.93 1019.90 1019.79 1019.59 1019.62 1019.61 1019.59 1019.63 1019.66 1019.69 1019.72 1019.74 1019.78 1019.80 1019.83 1019.85 1019.89
1015.57 1015.58 1015.62 1015.95 1016.49 1016.72 1016.63 1016.32 1016.26 1016.53 1017.01 1017.34 1017.49 1017.69 1017.94 1018.50 1018.57 1018.63 1018.62 1018.74 1018.65 1018.86 1019.13 1019.30 1019.46 1019.58 1019.75 1019.87 1019.98 1019.97 1020.04 1020.04 1020.01 1020.03 1019.99 1019.86 1019.71 1019.59 1019.64 1019.66 1019.71 1019.74 1019.79 1019.82 1019.86 1019.93 1020.00 1019.99 1019.99
1015.66 1015.80 1015.99 1016.27 1016.77 1016.58 1016.34 1016.14 1016.37 1017.06 1017.42 1017.48 1018.00 1018.37 1018.64 1018.84 1018.85 1018.83 1018.90 1018.76 1018.80 1018.95 1019.23 1019.41 1019.56 1019.68 1019.83 1019.98 1020.06 1020.10 1020.12 1020.11 1020.07 1020.01 1019.97 1019.94 1019.84 1019.77 1019.74 1019.69 1019.70 1019.78 1019.82 1019.88 1019.93 1019.99 1020.05 1020.07 1020.06
1015.81 1016.22 1016.80 1016.51 1016.74 1016.36 1016.00 1016.04 1016.46 1017.23 1017.58 1017.70 1018.14 1018.72 1019.14 1019.22 1019.17 1019.07 1018.97 1018.89 1018.90 1019.13 1019.39 1019.53 1019.71 1019.80 1019.88 1020.06 1020.08 1020.15 1020.11 1020.12 1020.14 1020.11 1020.03 1019.93 1019.88 1019.86 1019.84 1019.80 1019.73 1019.79 1019.86 1019.90 1019.91 1019.90 1019.92 1019.96 1019.97
1016.11 1016.49 1017.02 1017.00 1016.68 1016.28 1016.18 1016.24 1016.56 1017.09 1017.63 1017.94 1018.23 1018.96 1019.25 1019.35 1019.46 1019.26 1019.14 1019.10 1019.20 1019.45 1019.69 1019.74 1019.92 1020.03 1020.11 1020.23 1020.30 1020.33 1020.37 1020.32 1020.20 1020.22 1020.15 1020.05 1019.94 1019.90 1019.90 1019.87 1019.81 1019.76 1019.80 1019.81 1019.79 1019.75 1019.74 1019.74 1019.76
1016.50 1016.71 1017.22 1017.21 1016.92 1016.64 1016.51 1016.38 1016.45 1017.21 1017.75 1018.15 1018.44 1018.91 1019.38 1019.49 1019.49 1019.44 1019.43 1019.50 1019.63 1019.81 1020.16 1020.30 1020.46 1020.38 1020.45 1020.50 1020.57 1020.60 1020.69 1020.67 1020.52 1020.43 1020.36 1020.28 1020.15 1020.08 1019.98 1019.93 1019.87 1019.77 1019.65 1019.61 1019.58 1019.54 1019.51 1019.50 1019.47
1016.15 1016.83 1017.27 1017.37 1017.24 1016.98 1016.62 1016.59 1016.73 1017.30 1017.76 1018.21 1018.39 1018.99 1019.66 1019.61 1019.58 1019.62 1019.84 1019.86 1020.10 1020.43 1020.62 1020.74 1020.82 1020.82 1020.82 1020.89 1020.97 1020.99 1021.01 1020.99 1020.90 1020.79 1020.73 1020.66 1020.55 1020.42 1020.25 1020.13 1019.98 1019.79 1019.54 1019.43 1019.36 1019.31 1019.23 1019.20 1019.15
1016.35 1016.79 1017.69 1017.57 1017.34 1017.00 1016.86 1016.91 1017.10 1017.20 1017.94 1018.32 1018.50 1018.70 1019.46 1019.43 1019.68 1019.81 1020.17 1020.36 1020.65 1020.93 1021.17 1021.08 1021.08 1021.16 1021.19 1021.29 1021.36 1021.41 1021.35 1021.33 1021.28 1021.18 1021.08 1020.98 1020.84 1020.76 1020.60 1020.42 1020.21 1019.94 1019.70 1019.43 1019.33 1019.14 1018.95 1018.94 1018.83
1016.35 1016.97 1017.75 1017.53 1017.36 1017.00 1017.07 1017.14 1017.51 1017.63 1017.86 1018.35 1018.78 1018.81 1019.13 1019.48 1019.91 1020.15 1020.64 1020.98 1021.22 1021.46 1021.57 1021.49 1021.45 1021.46 1021.42 1021.54 1021.76 1021.77 1021.73 1021.64 1021.57 1021.42 1021.34 1021.14 1021.09 1020.95 1020.72 1020.69 1020.41 1020.10 1019.84 1019.62 1019.44 1019.23 1019.06 1018.84 1018.51
1016.52 1017.22 1017.40 1017.18 1016.95 1016.93 1017.06 1017.06 1017.35 1017.85 1018.18 1018.47 1019.01 1019.21 1019.60 1019.69 1020.09 1020.46 1020.95 1021.29 1021.57 1021.66 1021.84 1021.73 1021.73 1021.79 1021.73 1021.71 1022.00 1022.05 1021.99 1021.94 1021.84 1021.70 1021.51 1021.35 1021.27 1021.18 1021.00 1020.83 1020.56 1020.31 1020.09 1019.84 1019.60 1019.38 1019.10 1018.84 1018.58
1016.87 1017.33 1017.39 1017.26 1017.05 1017.08 1017.04 1017.33 1017.42 1017.69 1018.31 1017.99 1018.28 1019.33 1019.93 1020.00 1020.50 1020.85 1021.22 1021.38 1021.52 1021.66 1021.84 1021.86 1021.98 1022.00 1021.95 1022.05 1022.11 1022.15 1022.13 1022.09 1022.03 1021.91 1021.72 1021.52 1021.31 1021.15 1020.96 1020.82 1020.63 1020.39 1020.20 1019.86 1019.70 1019.51 1019.32 1019.09 1018.81
1017.10 1017.78 1017.65 1017.62 1017.38 1017.50 1017.40 1017.46 1017.67 1017.71 1017.88 1017.85 1018.29 1018.95 1019.84 1020.26 1020.70 1021.06 1021.32 1021.46 1021.56 1021.71 1021.91 1022.08 1022.10 1022.19 1022.31 1022.28 1022.28 1022.31 1022.26 1022.21 1022.15 1022.10 1021.87 1021.65 1021.43 1021.21 1021.02 1020.83 1020.75 1020.58 1020.44 1020.14 1019.98 1019.74 1019.48 1019.21 1018.95
1017.35 1018.07 1018.15 1018.07 1017.78 1018.05 1017.81 1017.69 1017.87 1018.19 1018.27 1018.19 1018.70 1019.21 1019.94 1020.49 1020.84 1021.13 1021.37 1021.51 1021.67 1021.82 1022.04 1022.19 1022.19 1022.34 1022.40 1022.37 1022.41 1022.38 1022.39 1022.36 1022.34 1022.20 1022.02 1021.83 1021.57 1021.32 1021.14 1020.92 1020.80 1020.59 1020.49 1020.25 1019.94 1019.73 1019.50 1019.26 1018.99
1017.73 1018.12 1018.52 1018.57 1018.38 1018.46 1018.23 1018.21 1018.08 1018.61 1018.80 1018.73 1019.08 1019.77 1020.15 1020.54 1020.98 1021.29 1021.56 1021.66 1021.80 1021.98 1022.18 1022.23 1022.21 1022.39 1022.47 1022.42 1022.53 1022.50 1022.49 1022.47 1022.36 1022.23 1022.14 1021.95 1021.72 1021.44 1021.14 1020.96 1020.73 1020.54 1020.43 1020.15 1019.96 1019.74 1019.47 1019.21 1018.97
1017.92 1018.64 1018.81 1019.13 1018.78 1018.80 1018.65 1018.69 1018.65 1018.80 1019.07 1019.28 1019.59 1020.09 1020.58 1020.78 1021.06 1021.15 1021.41 1021.66 1021.78 1022.00 1022.14 1022.12 1022.07 1022.37 1022.40 1022.50 1022.55 1022.54 1022.53 1022.43 1022.35 1022.30 1022.18 1021.98 1021.72 1021.48 1021.28 1021.01 1020.74 1020.58 1020.39 1020.16 1019.82 1019.51 1019.30 1019.06 1018.76
1018.53 1019.03 1019.56 1019.68 1019.04 1018.95 1018.84 1019.03 1019.00 1019.30 1019.34 1019.74 1019.99 1020.40 1020.73 1020.93 1021.01 1021.14 1021.44 1021.60 1021.73 1021.94 1022.00 1021.99 1022.05 1022.29 1022.40 1022.50 1022.51 1022.49 1022.61 1022.49 1022.34 1022.23 1022.10 1021.90 1021.68 1021.50 1021.27 1021.02 1020.72 1020.64 1020.34 1020.07 1019.78 1019.51 1019.23 1019.00 1018.67
1019.74 1019.94 1020.11 1020.08 1019.72 1019.45 1019.22 1019.38 1019.37 1019.68 1019.89 1020.09 1020.28 1020.55 1020.90 1021.16 1021.04 1021.14 1021.26 1021.54 1021.61 1021.70 1021.94 1022.05 1022.16 1022.28 1022.38 1022.47 1022.48 1022.47 1022.54 1022.49 1022.31 1022.18 1022.04 1021.83 1021.57 1021.41 1021.27 1020.99 1020.76 1020.59 1020.32 1020.02 1019.85 1019.62 1019.51 1019.03 1018.53
1020.08 1020.58 1020.73 1020.50 1020.49 1019.95 1019.87 1019.79 1019.74 1019.95 1020.30 1020.40 1020.62 1020.72 1020.91 1020.99 1020.70 1020.92 1021.11 1021.30 1021.45 1021.60 1021.90 1022.02 1022.17 1022.26 1022.22 1022.24 1022.33 1022.46 1022.38 1022.34 1022.36 1022.19 1021.99 1021.84 1021.58 1021.29 1021.13 1020.94 1020.74 1020.55 1020.25 1020.05 1019.90 1019.74 1019.45 1019.14 1018.73
1019.91 1020.39 1021.04 1021.26 1021.10 1020.74 1020.73 1020.43 1020.14 1020.19 1020.58 1020.74 1020.88 1020.92 1020.81 1020.88 1020.67 1020.79 1020.81 1021.02 1021.34 1021.70 1021.85 1021.97 1022.09 1022.10 1022.12 1022.21 1022.32 1022.37 1022.41 1022.38 1022.24 1022.12 1021.91 1021.72 1021.51 1021.27 1020.99 1020.83 1020.68 1020.53 1020.22 1020.04 1019.93 1019.73 1019.50 1018.99 1018.70
1020.43 1020.94 1021.70 1021.86 1021.63 1021.27 1021.51 1020.68 1020.25 1020.46 1020.64 1020.86 1020.95 1021.11 1021.04 1021.12 1020.94 1020.87 1020.88 1021.02 1021.28 1021.50 1021.70 1021.86 1021.89 1021.96 1022.03 1022.17 1022.39 1022.58 1022.59 1022.53 1022.36 1022.12 1021.74 1021.52 1021.30 1021.22 1020.93 1020.83 1020.62 1020.47 1020.18 1019.92 1019.80 1019.73 1019.55 1019.31 1019.06
1022.14 1021.68 1022.05 1022.14 1022.55 1022.86 1022.37 1021.49 1020.79 1020.85 1020.81 1020.96 1021.19 1021.41 1021.38 1021.25 1021.03 1020.87 1020.91 1021.06 1021.35 1021.43 1021.53 1021.65 1021.70 1021.78 1021.92 1022.06 1022.30 1022.56 1022.59 1022.53 1022.21 1021.88 1021.56 1021.39 1021.24 1021.06 1020.95 1020.79 1020.61 1020.33 1020.13 1019.90 1019.72 1019.63 1019.62 1019.50 1019.13
1022.84 1022.72 1022.59 1022.97 1023.53 1024.16 1023.91 1022.84 1021.65 1021.47 1021.21 1021.36 1021.50 1021.60 1021.62 1021.50 1021.26 1021.10 1021.06 1021.12 1021.30 1021.31 1021.55 1021.63 1021.65 1021.68 1021.74 1021.86 1022.08 1022.31 1022.38 1022.33 1022.05 1021.87 1021.60 1021.24 1021.10 1020.97 1020.81 1020.66 1020.56 1020.37 1020.19 1019.96 1019.76 1019.56 1019.58 1019.58 1019.26
1023.56 1023.32 1023.58 1024.11 1024.85 1025.33 1025.02 1024.24 1022.48 1021.92 1021.89 1021.82 1021.90 1022.00 1021.94 1021.74 1021.53 1021.30 1021.14 1021.07 1021.14 1021.20 1021.26 1021.38 1021.43 1021.47 1021.53 1021.72 1021.92 1022.12 1022.10 1022.05 1021.78 1021.74 1021.47 1021.12 1020.81 1020.77 1020.65 1020.50 1020.42 1020.29 1020.16 1019.93 1019.62 1019.45 1019.51 1019.53 1019.45
1023.81 1023.99 1024.47 1025.26 1025.94 1027.06 1027.07 1026.02 1023.40 1022.49 1022.27 1022.27 1022.36 1022.30 1022.14 1021.91 1021.61 1021.47 1021.26 1021.08 1021.08 1021.06 1021.10 1021.15 1021.20 1021.10 1021.26 1021.42 1021.54 1021.75 1021.79 1021.68 1021.63 1021.49 1021.26 1020.89 1020.61 1020.35 1020.30 1020.24 1020.12 1020.04 1020.00 1019.77 1019.49 1019.42 1019.39 1019.42 1019.35
1024.19 1024.61 1025.89 1027.05 1027.30 1028.03 1028.03 1026.83 1023.69 1022.62 1022.45 1022.61 1022.75 1022.65 1022.35 1022.11 1021.85 1021.65 1021.48 1021.24 1021.14 1021.07 1020.98 1020.94 1020.94 1020.73 1020.97 1021.11 1021.21 1021.25 1021.32 1021.29 1021.23 1021.27 1021.15 1020.84 1020.36 1020.09 1019.96 1020.03 1019.89 1019.68 1019.70 1019.64 1019.49 1019.33 1019.24 1019.34 1019.26
1024.89 1025.01 1025.63 1026.84 1028.17 1028.05 1027.80 1025.79 1023.34 1022.74 1022.66 1022.78 1022.90 1022.86 1022.59 1022.26 1022.00 1021.76 1021.61 1021.40 1021.19 1021.03 1020.83 1020.78 1020.73 1020.57 1020.63 1020.71 1020.68 1020.72 1020.77 1020.77 1020.70 1020.69 1020.77 1020.71 1020.39 1020.06 1019.79 1019.80 1019.68 1019.49 1019.58 1019.54 1019.30 1019.06 1019.11 1019.16 1019.17
1024.96 1025.28 1025.66 1026.80 1028.73 1027.94 1026.72 1024.91 1023.65 1022.92 1022.96 1023.11 1023.05 1022.79 1022.72 1022.57 1022.22 1021.92 1021.58 1021.38 1021.13 1020.87 1020.72 1020.67 1020.57 1020.39 1020.31 1020.22 1020.15 1020.16 1020.18 1020.26 1020.28 1020.20 1020.24 1020.12 1020.08 1020.06 1019.87 1019.70 1019.59 1019.45 1019.36 1019.32 1019.11 1018.94 1018.89 1018.88 1018.91
1025.07 1025.42 1025.80 1026.36 1027.66 1027.70 1026.71 1025.30 1023.81 1023.41 1023.26 1023.27 1023.22 1023.20 1023.04 1022.76 1022.36 1021.96 1021.70 1021.38 1021.06 1020.85 1020.60 1020.40 1020.37 1020.15 1019.85 1019.82 1019.76 1019.64 1019.66 1019.73 1019.72 1019.80 1019.80 1019.78 1019.59 1019.59 1019.54 1019.39 1019.35 1019.29 1019.09 1019.07 1018.93 1018.86 1018.67 1018.57 1018.53
1025.41 1025.50 1026.01 1026.45 1027.02 1027.18 1026.67 1025.04 1023.26 1023.14 1023.13 1023.20 1023.27 1023.29 1023.18 1023.03 1022.74 1022.40 1021.99 1021.62 1021.36 1021.06 1020.76 1020.50 1020.18 1019.92 1019.62 1019.49 1019.32 1019.25 1019.13 1019.22 1019.24 1019.27 1019.26 1019.29 1019.23 1019.14 1019.18 1019.10 1019.08 1019.03 1018.87 1018.84 1018.74 1018.74 1018.60 1018.34 1018.24
1025.53 1025.58 1025.74 1026.41 1027.46 1027.61 1026.89 1024.24 1023.10 1023.08 1023.03 1023.12 1023.25 1023.03 1023.08 1023.06 1022.89 1022.67 1022.30 1021.84 1021.47 1021.21 1020.75 1020.40 1020.05 1019.79 1019.55 1019.30 1019.12 1018.92 1018.87 1018.84 1018.85 1018.75 1018.69 1018.76 1018.67 1018.61 1018.61 1018.74 1018.74 1018.68 1018.67 1018.65 1018.57 1018.54 1018.40 1018.28 1018.12
Thickness
5717 5722 5725 5725 5708 5700 5693 5707 5715 5718 5722 5725 5728 5729 5728 5718 5722 5718 5729 5732 5731 5729 5728 5728 5727 5727 5726 5725 5725 5725 5724 5724 5723 5723 5723 5725 5724 5723 5722 5720 5719 5718 5717 5716 5715 5714 5713 5711 5710
5711 5715 5717 5706 5690 5685 5694 5706 5712 5720 5720 5722 5724 5724 5720 5713 5722 5723 5727 5730 5731 5729 5727 5727 5727 5727 5725 5724 5723 5723 5722 5722 5722 5721 5721 5721 5722 5722 5721 5719 5718 5716 5715 5714 5713 5711 5710 5708 5707
5705 5707 5703 5693 5678 5687 5695 5705 5714 5713 5716 5720 5717 5718 5716 5713 5722 5724 5727 5729 5730 5728 5727 5726 5726 5725 5724 5722 5721 5721 5721 5721 5720 5720 5720 5719 5719 5719 5718 5717 5716 5714 5713 5711 5710 5709 5708 5706 5705
5697 5696 5690 5683 5680 5696 5706 5710 5711 5708 5712 5717 5715 5710 5714 5718 5720 5725 5727 5727 5729 5727 5726 5725 5724 5723 5723 5721 5720 5719 5720 5719 5719 5718 5717 5717 5716 5715 5714 5713 5713 5711 5710 5708 5707 5706 5705 5704 5702
5686 5684 5669 5672 5685 5697 5700 5707 5708 5706 5707 5709 5711 5703 5707 5716 5717 5722 5725 5725 5726 5724 5722 5723 5722 5721 5721 5719 5718 5717 5716 5716 5716 5715 5714 5714 5713 5712 5710 5709 5708 5707 5706 5705 5704 5703 5702 5701 5700
5672 5675 5665 5671 5680 5691 5697 5704 5708 5704 5704 5705 5704 5702 5705 5712 5715 5718 5721 5721 5720 5720 5718 5718 5717 5718 5718 5717 5715 5713 5712 5711 5711 5711 5710 5710 5709 5708 5707 5706 5705 5704 5704 5703 5701 5700 5700 5699 5698
5670 5667 5666 5666 5674 5683 5693 5701 5704 5700 5701 5701 5706 5697 5698 5706 5712 5715 5715 5716 5716 5714 5714 5713 5713 5714 5715 5713 5711 5709 5708 5708 5707 5707 5706 5706 5705 5704 5703 5703 5702 5702 5702 5701 5700 5699 5699 5697 5697
5665 5665 5655 5662 5672 5682 5690 5694 5697 5702 5695 5699 5702 5699 5696 5705 5709 5711 5711 5711 5710 5709 5708 5709 5709 5709 5710 5709 5707 5705 5704 5703 5702 5702 5701 5701 5701 5700 5699 5699 5698 5698 5698 5699 5698 5698 5697 5696 5696
5661 5653 5650 5664 5670 5683 5687 5690 5691 5694 5695 5695 5696 5701 5702 5704 5705 5706 5704 5704 5703 5702 5702 5704 5704 5704 5705 5704 5701 5700 5699 5698 5698 5697 5697 5697 5695 5695 5694 5694 5693 5693 5694 5694 5693 5693 5693 5693 5694
5651 5650 5657 5668 5676 5680 5684 5690 5689 5690 5688 5689 5690 5694 5696 5701 5701 5700 5699 5698 5697 5698 5698 5700 5700 5700 5701 5699 5697 5695 5694 5693 5692 5691 5692 5691 5691 5689 5689 5689 5689 5688 5688 5688 5688 5688 5688 5688 5688
5645 5652 5658 5666 5673 5678 5681 5681 5686 5686 5684 5694 5694 5690 5691 5695 5695 5694 5694 5695 5696 5696 5696 5697 5696 5696 5696 5694 5692 5690 5689 5687 5686 5686 5686 5686 5686 5685 5685 5684 5683 5683 5682 5682 5681 5681 5680 5679 5679
5638 5642 5654 5660 5669 5674 5676 5677 5678 5686 5690 5694 5696 5695 5692 5692 5692 5691 5690 5692 5693 5693 5694 5692 5692 5691 5690 5689 5687 5685 5683 5682 5681 5680 5681 5680 5680 5680 5679 5678 5676 5676 5675 5675 5674 5673 5672 5671 5670
5634 5638 5644 5651 5660 5662 5669 5672 5676 5677 5683 5691 5691 5692 5689 5689 5689 5688 5688 5689 5690 5690 5689 5688 5688 5687 5685 5684 5682 5681 5678 5675 5674 5674 5675 5674 5674 5673 5672 5671 5670 5669 5668 5667 5667 5665 5664 5663 5662
5626 5632 5637 5643 5651 5655 5662 5666 5675 5674 5677 5685 5688 5685 5685 5686 5685 5684 5683 5685 5685 5685 5684 5684 5684 5682 5681 5680 5676 5674 5671 5670 5669 5669 5668 5668 5667 5667 5666 5665 5664 5662 5661 5660 5659 5657 5656 5655 5655
5621 5625 5632 5632 5642 5651 5654 5662 5667 5670 5674 5678 5681 5681 5679 5681 5680 5683 5683 5682 5683 5682 5681 5681 5680 5678 5676 5672 5670 5668 5666 5666 5665 5663 5662 5662 5661 5660 5659 5657 5656 5654 5653 5652 5651 5650 5649 5648 5648
5613 5616 5620 5628 5638 5647 5655 5649 5663 5662 5670 5673 5675 5675 5675 5676 5679 5679 5679 5679 5680 5679 5678 5677 5675 5672 5670 5666 5664 5662 5660 5660 5659 5658 5657 5656 5654 5652 5650 5648 5647 5645 5644 5643 5642 5642 5642 5641 5641
5592 5603 5611 5623 5626 5635 5647 5649 5655 5655 5662 5667 5670 5671 5671 5671 5674 5676 5678 5676 5677 5676 5674 5672 5670 5667 5664 5660 5658 5657 5655 5654 5653 5651 5649 5648 5647 5644 5641 5639 5637 5635 5635 5634 5633 5633 5631 5632 5632
5596 5595 5603 5615 5622 5633 5640 5646 5651 5654 5655 5661 5664 5666 5667 5669 5675 5676 5675 5674 5673 5672 5669 5667 5664 5661 5658 5655 5653 5650 5649 5648 5645 5643 5641 5639 5638 5636 5633 5631 5628 5626 5626 5625 5625 5624 5624 5622 5622
5598 5603 5602 5607 5614 5628 5622 5629 5643 5651 5650 5654 5656 5660 5665 5668 5672 5672 5673 5671 5668 5665 5664 5662 5659 5656 5653 5650 5647 5645 5643 5640 5638 5636 5634 5631 5628 5626 5625 5622 5620 5618 5619 5617 5615 5615 5614 5616 5615
5594 5599 5597 5604 5607 5623 5613 5634 5640 5644 5647 5649 5654 5657 5660 5662 5665 5667 5668 5666 5663 5662 5659 5656 5654 5650 5647 5643 5640 5636 5633 5630 5628 5625 5624 5621 5619 5616 5615 5614 5612 5611 5611 5610 5608 5606 5605 5607 5608
5569 5594 5593 5610 5603 5589 5602 5632 5639 5637 5642 5647 5648 5647 5653 5656 5659 5661 5661 5660 5656 5655 5653 5650 5647 5643 5640 5636 5632 5628 5624 5621 5619 5617 5615 5611 5609 5608 5606 5605 5603 5603 5602 5602 5601 5600 5599 5599 5602
5585 5578 5591 5595 5593 5599 5581 5619 5631 5625 5637 5638 5639 5642 5646 5648 5652 5654 5655 5654 5650 5649 5644 5641 5638 5636 5633 5629 5625 5619 5615 5612 5608 5605 5603 5603 5600 5599 5598 5596 5594 5593 5593 5594 5594 5595 5594 5592 5594
5573 5576 5580 5579 5558 5572 5591 5598 5623 5621 5630 5636 5636 5635 5637 5640 5643 5646 5647 5645 5644 5641 5637 5634 5631 5629 5625 5619 5614 5609 5605 5601 5599 5596 5594 5593 5591 5590 5589 5588 5587 5586 5586 5587 5589 5589 5588 5586 5585
5557 5574 5571 5554 5549 5570 5551 5575 5605 5621 5625 5626 5626 5627 5629 5633 5636 5637 5636 5637 5636 5632 5629 5627 5624 5622 5617 5611 5606 5600 5596 5594 5590 5588 5585 5584 5583 5582 5581 5581 5581 5581 5581 5583 5584 5583 5582 5581 5580
5564 5568 5534 5565 5551 5583 5502 5552 5607 5616 5616 5618 5618 5619 5621 5623 5626 5626 5627 5627 5626 5624 5622 5619 5616 5614 5609 5603 5598 5595 5590 5586 5583 5578 5575 5572 5574 5575 5575 5574 5577 5578 5578 5578 5578 5579 5578 5576 5576
5551 5555 5550 5573 5557 5579 5533 5581 5606 5604 5608 5609 5608 5609 5611 5615 5614 5615 5616 5615 5614 5613 5612 5609 5607 5604 5601 5596 5593 5588 5584 5580 5577 5573 5567 5564 5566 5568 5569 5570 5572 5575 5574 5574 5575 5576 5575 5573 5572
5563 5552 5558 5527 5498 5550 5558 5585 5594 5602 5600 5597 5601 5603 5602 5602 5603 5605 5606 5604 5604 5605 5604 5601 5599 5596 5593 5590 5586 5583 5580 5575 5572 5568 5564 5563 5563 5563 5565 5568 5569 5570 5571 5572 5572 5573 5573 5571 5569
5557 5550 5564 5539 5561 5567 5563 5559 5590 5587 5590 5590 5595 5592 5591 5592 5594 5595 5595 5595 5596 5595 5594 5592 5589 5587 5586 5584 5582 5580 5577 5572 5568 5565 5563 5562 5562 5562 5564 5567 5568 5569 5570 5570 5570 5570 5570 5570 5568
5545 5547 5542 5543 5542 5561 5560 5578 5565 5569 5581 5582 5587 5581 5579 5578 5579 5580 5583 5584 5583 5583 5583 5581 5581 5581 5581 5580 5579 5576 5574 5570 5567 5565 5563 5562 5562 5563 5564 5566 5567 5567 5568 5568 5568 5566 5566 5567 5566
5542 5551 5547 5551 5548 5499 5516 5563 5575 5572 5576 5578 5576 5572 5571 5568 5567 5569 5570 5572 5573 5572 5574 5575 5576 5575 5575 5574 5573 5572 5570 5568 5565 5565 5563 5561 5562 5563 5564 5564 5565 5565 5565 5565 5564 5563 5563 5563 5562